• In Moldova, Republic
  • List of Countries
  • For 7 days
  • Water Temperature
  • Satellite Maps
  • Weather Map
  • Weather Widgets
  • user-avatar
    Login

    Hourly Weather Sankt Polten

    Today, 17 October, Tuesday

    Time Temperature Precipitation Wind Pressure Humidity
    00:00 +15°C° 0 mm 1 mps 743 mmHg 78%
    01:00 +15°C° 0 mm 1 mps 743 mmHg 77%
    02:00 +14°C° 0 mm 1 mps 743 mmHg 76%
    03:00 +14°C° 0 mm 1 mps 743 mmHg 76%
    04:00 +14°C° 0 mm 1 mps 743 mmHg 76%
    05:00 +14°C° 0 mm 1 mps 743 mmHg 75%
    06:00 +14°C° 0 mm 1 mps 743 mmHg 75%
    07:00 +14°C° 0 mm 1 mps 743 mmHg 75%
    08:00 +16°C° 0 mm 1 mps 743 mmHg 68%
    09:00 +20°C° 0 mm 1 mps 743 mmHg 60%
    10:00 +22°C° 0 mm 1 mps 743 mmHg 53%
    11:00 +23°C° 0 mm 1 mps 742 mmHg 51%
    12:00 +24°C° 0 mm 1 mps 742 mmHg 49%
    13:00 +25°C° 0 mm 2 mps 742 mmHg 47%
    14:00 +24°C° 0 mm 2 mps 741 mmHg 53%
    15:00 +23°C° 0 mm 2 mps 741 mmHg 59%
    16:00 +21°C° 0 mm 2 mps 740 mmHg 65%
    17:00 +20°C° 0 mm 1 mps 740 mmHg 71%
    18:00 +18°C° 0 mm 1 mps 740 mmHg 76%
    19:00 +15°C° 0 mm 1 mps 740 mmHg 82%
    20:00 +15°C° 0 mm 1 mps 739 mmHg 82%
    21:00 +14°C° 0 mm 1 mps 739 mmHg 82%
    22:00 +14°C° 0 mm 1 mps 739 mmHg 81%
    23:00 +14°C° 0 mm 1 mps 739 mmHg 82%

    Tomorrow, 18 October, Wednesday

    Time Temperature Precipitation Wind Pressure Humidity
    00:00 +13°C° 0 mm 1 mps 738 mmHg 82%
    01:00 +13°C° 0 mm 1 mps 738 mmHg 82%
    02:00 +13°C° 0 mm 1 mps 738 mmHg 82%
    03:00 +13°C° 0 mm 1 mps 737 mmHg 83%
    04:00 +12°C° 0 mm 1 mps 737 mmHg 83%
    05:00 +12°C° 0 mm 1 mps 737 mmHg 83%
    06:00 +12°C° 0 mm 1 mps 737 mmHg 83%
    07:00 +12°C° 0 mm 1 mps 737 mmHg 83%
    08:00 +15°C° 0 mm 1 mps 737 mmHg 75%
    09:00 +18°C° 0 mm 1 mps 737 mmHg 67%
    10:00 +20°C° 0 mm 1 mps 737 mmHg 59%
    11:00 +21°C° 0 mm 1 mps 736 mmHg 56%
    12:00 +22°C° 0 mm 1 mps 736 mmHg 53%
    13:00 +23°C° 0 mm 1 mps 736 mmHg 50%
    14:00 +22°C° 0 mm 1 mps 735 mmHg 55%
    15:00 +21°C° 0 mm 1 mps 735 mmHg 60%
    16:00 +21°C° 0 mm 1 mps 735 mmHg 65%
    17:00 +19°C° 0 mm 1 mps 735 mmHg 70%
    18:00 +16°C° 0 mm 1 mps 735 mmHg 76%
    19:00 +13°C° 0 mm 0 mps 735 mmHg 81%
    20:00 +14°C° 0 mm 1 mps 735 mmHg 82%
    21:00 +14°C° 0 mm 1 mps 735 mmHg 83%
    22:00 +14°C° 0 mm 1 mps 735 mmHg 84%
    23:00 +13°C° 0 mm 1 mps 735 mmHg 84%

    Day after tomorrow, 19 October, Thursday

    Time Temperature Precipitation Wind Pressure Humidity
    00:00 +13°C° 0 mm 1 mps 735 mmHg 85%
    01:00 +13°C° 0 mm 1 mps 735 mmHg 85%
    02:00 +13°C° 0 mm 1 mps 735 mmHg 85%
    03:00 +12°C° 0 mm 1 mps 735 mmHg 86%
    04:00 +12°C° 0 mm 1 mps 735 mmHg 86%
    05:00 +12°C° 0 mm 1 mps 735 mmHg 86%
    06:00 +12°C° 0 mm 1 mps 735 mmHg 86%
    07:00 +12°C° 0 mm 1 mps 735 mmHg 86%
    08:00 +15°C° 0 mm 1 mps 735 mmHg 78%
    09:00 +16°C° 0 mm 0 mps 736 mmHg 69%
    10:00 +19°C° 0 mm 0 mps 736 mmHg 61%
    11:00 +20°C° 0 mm 0 mps 736 mmHg 57%
    12:00 +20°C° 0 mm 0 mps 736 mmHg 53%
    13:00 +23°C° 0 mm 1 mps 735 mmHg 50%
    14:00 +22°C° 0 mm 1 mps 735 mmHg 54%
    15:00 +21°C° 0 mm 1 mps 735 mmHg 59%
    16:00 +20°C° 0 mm 1 mps 735 mmHg 64%
    17:00 +19°C° 0 mm 1 mps 735 mmHg 70%
    18:00 +16°C° 0 mm 1 mps 735 mmHg 76%
    19:00 +14°C° 0 mm 1 mps 735 mmHg 81%
    20:00 +14°C° 0 mm 1 mps 736 mmHg 82%
    21:00 +13°C° 0 mm 1 mps 736 mmHg 83%
    22:00 +13°C° 0 mm 1 mps 736 mmHg 84%
    23:00 +13°C° 0 mm 1 mps 736 mmHg 84%

    20 October, Friday

    Time Temperature Precipitation Wind Pressure Humidity
    00:00 +13°C° 0 mm 1 mps 736 mmHg 84%
    01:00 +12°C° 0 mm 1 mps 736 mmHg 84%
    02:00 +11°C° 0 mm 0 mps 736 mmHg 84%
    03:00 +11°C° 0 mm 0 mps 736 mmHg 84%
    04:00 +11°C° 0 mm 0 mps 736 mmHg 84%
    05:00 +11°C° 0 mm 0 mps 736 mmHg 84%
    06:00 +10°C° 0 mm 0 mps 736 mmHg 84%
    07:00 +10°C° 0 mm 0 mps 736 mmHg 84%
    08:00 +13°C° 0 mm 0 mps 736 mmHg 75%
    09:00 +15°C° 0 mm 0 mps 736 mmHg 67%
    10:00 +18°C° 0 mm 0 mps 737 mmHg 59%
    11:00 +21°C° 0 mm 1 mps 737 mmHg 56%
    12:00 +22°C° 0 mm 1 mps 736 mmHg 53%
    13:00 +22°C° 0 mm 1 mps 736 mmHg 50%
    14:00 +21°C° 0 mm 1 mps 736 mmHg 55%
    15:00 +21°C° 0 mm 1 mps 736 mmHg 61%
    16:00 +20°C° 0 mm 1 mps 736 mmHg 66%
    17:00 +18°C° 0 mm 1 mps 736 mmHg 72%
    18:00 +15°C° 0 mm 1 mps 737 mmHg 77%
    19:00 +14°C° 0 mm 1 mps 737 mmHg 83%
    20:00 +14°C° 0 mm 1 mps 737 mmHg 82%
    21:00 +13°C° 0 mm 1 mps 737 mmHg 82%
    22:00 +13°C° 0 mm 1 mps 738 mmHg 82%
    23:00 +13°C° 0 mm 1 mps 738 mmHg 80%

    21 October, Saturday

    Time Temperature Precipitation Wind Pressure Humidity
    00:00 +13°C° 0 mm 1 mps 738 mmHg 78%
    01:00 +13°C° 0 mm 1 mps 738 mmHg 76%
    02:00 +13°C° 0 mm 1 mps 738 mmHg 75%
    03:00 +13°C° 0 mm 1 mps 738 mmHg 74%
    04:00 +13°C° 0 mm 1 mps 738 mmHg 73%
    05:00 +13°C° 0 mm 1 mps 738 mmHg 73%
    06:00 +13°C° 0 mm 1 mps 738 mmHg 72%
    07:00 +13°C° 0 mm 1 mps 738 mmHg 71%
    08:00 +15°C° 0 mm 1 mps 738 mmHg 64%
    09:00 +19°C° 0 mm 1 mps 738 mmHg 57%
    10:00 +21°C° 0 mm 1 mps 738 mmHg 51%
    11:00 +22°C° 0 mm 1 mps 737 mmHg 48%
    12:00 +23°C° 0 mm 1 mps 737 mmHg 45%
    13:00 +24°C° 0 mm 1 mps 737 mmHg 43%
    14:00 +23°C° 0 mm 1 mps 736 mmHg 48%
    15:00 +22°C° 0 mm 1 mps 736 mmHg 54%
    16:00 +21°C° 0 mm 1 mps 736 mmHg 59%
    17:00 +19°C° 0 mm 1 mps 736 mmHg 63%
    18:00 +18°C° 0 mm 1 mps 736 mmHg 66%
    19:00 +15°C° 0 mm 1 mps 736 mmHg 70%
    20:00 +15°C° 0 mm 1 mps 736 mmHg 70%
    21:00 +15°C° 0 mm 1 mps 736 mmHg 70%
    22:00 +14°C° 0 mm 1 mps 736 mmHg 71%
    23:00 +14°C° 0 mm 1 mps 735 mmHg 72%

    22 October, Sunday

    Time Temperature Precipitation Wind Pressure Humidity
    00:00 +14°C° 0 mm 1 mps 735 mmHg 73%
    01:00 +13°C° 0 mm 1 mps 735 mmHg 74%
    02:00 +13°C° 0 mm 1 mps 735 mmHg 76%
    03:00 +13°C° 0 mm 1 mps 734 mmHg 78%
    04:00 +12°C° 0 mm 1 mps 734 mmHg 80%
    05:00 +12°C° 0 mm 1 mps 734 mmHg 81%
    06:00 +12°C° 0 mm 1 mps 734 mmHg 82%
    07:00 +12°C° 0 mm 1 mps 734 mmHg 83%
    08:00 +13°C° 0.2 mm 2 mps 734 mmHg 81%
    09:00 +15°C° 0.2 mm 2 mps 734 mmHg 79%
    10:00 +16°C° 0.2 mm 3 mps 734 mmHg 77%
    11:00 +14°C° 0.6 mm 3 mps 734 mmHg 81%
    12:00 +13°C° 0.6 mm 3 mps 734 mmHg 84%
    13:00 +12°C° 0.6 mm 3 mps 734 mmHg 87%
    14:00 +11°C° 0.9 mm 4 mps 734 mmHg 88%
    15:00 +11°C° 0.9 mm 4 mps 734 mmHg 89%
    16:00 +10°C° 0.9 mm 4 mps 735 mmHg 90%
    17:00 +10°C° 0.7 mm 4 mps 735 mmHg 89%
    18:00 +10°C° 0.7 mm 4 mps 736 mmHg 89%
    19:00 +8°C° 0.7 mm 4 mps 736 mmHg 88%
    20:00 +8°C° 0.2 mm 4 mps 736 mmHg 88%
    21:00 +8°C° 0.2 mm 4 mps 737 mmHg 88%
    22:00 +8°C° 0.2 mm 4 mps 737 mmHg 87%
    23:00 +7°C° 0.1 mm 4 mps 737 mmHg 87%
    Show more